Temperature
18 18 18 18 18 18 18 18 18 18 18 18 18 18 18 18 17 17 17 17 17 17 17 17 17 17 17 16 16 16 16 16 16 16 16 16 16 16 16 16 16 16 16
18 18 18 18 18 18 18 18 18 18 18 18 18 18 17 17 17 17 17 17 17 17 17 17 16 16 16 16 16 16 16 16 16 16 16 16 16 16 16 16 16 15 15
18 18 18 18 18 18 18 18 18 18 18 18 18 18 17 17 17 17 17 17 17 17 17 17 16 16 16 16 16 16 16 16 16 16 16 16 16 16 15 15 15 15 15
18 18 18 18 18 18 18 18 18 18 18 18 18 17 17 17 17 17 17 17 17 17 17 17 16 16 16 16 16 16 16 16 16 16 16 16 16 15 15 15 15 15 15
18 18 18 18 18 18 18 18 18 18 18 18 17 17 17 17 17 17 17 17 17 17 17 17 16 16 16 16 16 16 16 16 16 16 16 15 16 15 15 15 15 15 15
18 18 18 18 18 18 18 18 18 18 18 18 18 17 17 17 17 17 17 17 17 17 17 16 16 16 16 16 16 16 16 16 16 16 16 15 15 15 15 15 15 15 15
18 18 18 18 18 18 18 18 18 18 18 18 18 17 17 17 17 17 17 17 17 17 17 16 16 16 16 16 16 16 16 16 15 16 15 15 15 15 15 15 15 15 15
18 18 18 18 18 18 18 18 18 18 18 18 18 17 17 17 17 17 17 17 17 17 16 16 16 16 16 16 16 16 16 15 15 15 15 15 15 15 15 15 15 15 15
18 18 18 18 18 18 18 18 18 18 18 18 18 17 17 17 17 17 17 17 17 17 16 16 16 16 16 16 16 16 16 16 15 15 15 15 15 15 15 15 15 15 15
18 18 18 18 18 18 18 18 18 18 18 18 18 17 17 17 17 17 17 17 17 17 16 16 16 16 16 16 16 16 15 15 15 15 15 15 15 15 15 15 15 14 14
18 18 18 18 18 18 18 18 18 18 18 18 17 17 17 17 17 17 16 16 17 16 16 16 16 16 16 16 16 15 15 15 15 15 15 15 15 15 15 15 15 14 14
18 18 18 18 18 18 18 18 18 18 18 18 18 17 17 17 17 17 16 16 16 16 16 16 16 16 16 16 16 15 15 15 15 15 15 15 15 15 15 15 15 14 14
18 18 18 18 18 18 18 18 18 18 18 18 18 17 17 17 17 17 17 16 16 16 16 16 16 16 16 16 15 15 15 15 15 15 15 15 15 15 15 15 14 14 14
18 18 18 18 18 18 18 18 18 18 18 18 17 17 17 17 17 17 17 16 16 16 16 16 16 16 16 15 15 15 15 15 15 15 15 15 15 15 14 14 14 14 14
18 18 18 18 18 18 18 18 18 18 18 18 17 17 17 17 17 17 17 16 16 16 16 16 16 16 16 16 15 15 15 15 15 15 14 14 14 14 14 14 14 14 14
18 18 18 18 18 18 18 18 18 18 17 17 17 17 17 17 17 17 16 16 16 16 16 16 16 16 16 16 15 15 15 15 15 15 14 14 14 14 14 14 14 14 14
18 18 18 18 18 18 18 18 18 18 17 17 17 17 17 17 17 16 16 16 16 16 16 16 16 16 16 16 15 15 15 15 15 15 14 14 14 14 14 14 14 14 13
18 18 18 18 18 18 18 18 18 17 17 17 17 17 17 17 16 16 16 16 16 16 16 16 16 16 16 15 15 15 15 15 15 15 14 14 14 14 14 14 14 14 13
18 18 18 18 18 18 17 17 17 17 17 17 17 17 17 16 16 16 16 16 16 16 16 16 16 16 16 15 15 15 15 15 15 14 14 14 14 14 14 14 14 14 13
18 18 18 18 18 18 17 17 17 17 17 17 17 17 17 16 16 16 16 16 16 16 15 15 15 15 15 15 15 15 15 15 15 14 14 14 14 14 14 14 14 13 13
18 18 18 18 18 18 17 17 17 17 17 17 17 17 16 16 16 16 16 16 16 15 15 15 15 15 15 15 15 15 14 14 14 14 14 14 14 14 14 14 13 13 13
18 18 18 18 17 17 17 17 17 17 17 17 16 16 16 16 16 16 16 15 15 15 15 15 15 15 15 15 15 14 14 14 14 14 14 14 14 13 13 13 13 13 13
18 18 18 18 17 17 17 17 17 17 16 16 16 16 16 16 16 16 15 15 15 15 15 15 15 15 15 14 14 14 14 14 13 13 13 13 13 13 13 13 13 13 13
18 17 17 17 17 17 17 17 17 16 16 16 16 16 16 16 16 16 15 15 15 15 15 15 15 15 14 14 14 14 13 13 13 13 13 13 13 13 13 13 13 13 13
18 17 17 17 17 17 17 16 16 16 16 16 16 16 15 15 15 15 15 15 15 15 15 15 15 15 14 14 14 13 13 13 13 13 13 13 13 13 13 13 13 13 13
17 17 17 17 17 17 16 16 16 16 16 16 16 15 15 15 15 15 15 15 15 15 15 15 14 14 14 14 14 13 13 13 12 13 13 13 13 12 12 13 13 13 12
Wind_Speed
2 2 1 1 1 2 2 2 2 2 2 1 2 2 2 1 1 1 1 1 2 3 3 4 4 5 5 5 6 7 7 8 8 8 9 10 10 11 11 10 11 11 12
2 2 1 1 1 1 2 2 1 2 2 1 2 2 2 2 2 1 1 1 0 1 1 2 3 4 4 5 6 7 7 8 8 8 7 8 9 9 10 10 10 10 10
3 2 1 1 1 1 2 2 2 2 2 2 2 2 2 2 2 2 2 2 2 1 1 0 1 2 3 3 3 5 6 7 7 7 7 8 8 9 9 9 9 10 10
3 3 2 0 0 1 1 1 2 2 2 2 2 2 2 2 3 2 2 2 2 1 1 1 1 1 2 2 1 2 3 4 4 6 7 7 8 9 9 9 9 9 10
4 3 2 1 1 2 1 1 2 1 1 2 2 2 2 2 2 2 2 2 1 1 1 2 2 1 1 1 2 1 1 1 2 4 5 6 7 8 9 9 10 10 10
3 3 1 1 2 1 1 1 2 2 2 2 3 3 3 2 2 2 1 1 1 1 1 1 1 2 2 2 2 1 1 1 1 2 3 4 5 6 8 9 9 10 10
3 2 1 1 2 1 1 2 2 2 2 2 2 2 3 3 2 1 1 1 1 1 1 1 1 1 2 2 2 2 2 2 2 1 2 3 4 5 6 7 8 10 10
1 2 2 2 2 2 2 2 2 2 1 1 2 2 1 3 3 3 2 1 1 1 1 2 2 2 2 2 2 2 2 2 2 1 1 1 2 4 4 5 5 7 7
1 1 2 2 2 2 2 2 2 3 1 1 1 2 2 1 1 2 2 2 2 1 2 2 2 2 2 2 2 3 3 3 2 2 1 0 0 1 2 3 4 5 6
0 1 2 2 2 2 2 2 2 2 3 1 1 1 1 2 1 1 2 2 2 2 2 2 2 2 2 2 2 3 3 2 1 1 1 1 1 2 3 3 4 5 5
0 0 1 2 2 2 2 1 2 2 2 2 2 1 1 1 1 1 1 2 2 2 2 2 2 2 2 2 2 3 3 3 2 2 1 1 1 2 3 4 4 5 5
0 0 1 1 1 1 2 2 2 2 2 2 2 2 2 2 2 2 2 2 2 2 2 2 2 2 2 2 2 3 3 3 2 2 2 2 2 2 3 4 4 4 5
1 1 1 1 1 1 2 2 2 2 2 2 2 2 2 2 2 2 2 1 1 2 2 1 2 2 2 2 3 3 2 2 2 2 1 1 1 1 1 2 3 4 4
3 2 2 1 1 1 1 2 1 1 2 2 2 2 2 2 2 3 3 2 1 1 1 2 1 1 2 2 3 3 2 2 3 3 2 2 2 1 1 1 2 3 4
2 2 2 2 1 1 1 2 1 1 1 1 1 1 1 1 2 2 2 3 2 1 2 2 2 2 2 2 2 2 3 3 3 4 4 4 3 4 3 3 3 3 4
2 2 2 1 1 1 1 2 1 1 1 0 1 1 1 1 1 1 2 2 3 3 2 2 2 2 2 2 2 3 4 4 4 4 5 5 5 5 5 5 5 5 5
3 3 2 2 2 2 2 2 2 1 1 1 0 1 1 1 1 1 1 1 2 2 3 3 2 2 1 2 2 2 3 3 4 6 6 7 7 7 7 7 7 7 7
4 3 3 2 3 2 2 3 2 2 2 2 1 1 2 1 1 1 1 1 2 3 3 3 2 2 2 2 2 2 2 3 4 6 8 8 8 8 8 8 8 8 8
4 3 3 3 3 3 2 3 3 3 3 3 3 3 3 2 2 2 1 1 2 2 2 3 3 2 2 1 2 2 3 3 4 6 7 9 9 9 9 9 9 9 10
4 4 4 4 3 3 3 3 3 3 3 3 3 4 4 4 4 3 2 2 2 2 2 2 3 3 2 1 1 3 3 3 4 4 5 6 7 9 9 9 10 10 11
5 4 4 3 3 3 3 4 4 4 3 3 3 3 4 4 5 4 3 3 3 2 2 2 3 2 3 2 3 3 4 4 4 4 4 4 4 5 6 8 10 11 12
4 4 4 4 4 4 4 6 5 4 4 4 4 4 4 4 5 5 6 6 5 4 4 4 4 4 5 4 3 3 3 3 4 2 3 4 3 5 6 6 8 10 11
4 4 4 4 5 5 5 6 7 5 5 5 5 4 4 4 3 4 5 5 6 7 8 6 6 7 6 5 4 5 5 5 6 3 2 5 4 5 6 7 9 10 10
3 4 4 4 4 5 5 6 6 5 5 5 5 5 5 5 4 4 4 4 5 6 7 7 7 8 7 6 6 5 5 5 5 4 4 4 4 5 6 7 10 11 12
4 4 3 4 4 5 5 6 5 4 4 5 5 5 5 6 6 5 4 5 6 6 6 8 9 9 9 8 6 3 3 4 5 4 4 4 4 4 5 6 7 10 12
4 4 3 4 4 5 5 6 6 4 5 5 4 4 5 6 5 5 5 5 6 7 6 5 5 6 7 6 7 7 6 5 5 5 4 4 3 3 4 4 4 5 7
Wind_Direction
94 79 61 57 57 71 77 65 57 54 48 38 42 53 43 35 4 337 313 267 226 209 207 219 214 216 225 228 220 218 218 219 217 218 217 214 213 211 211 214 215 211 209
131 108 78 59 50 59 76 75 62 55 46 42 35 34 34 22 8 19 5 353 356 183 205 217 225 238 243 241 227 222 223 228 222 219 217 218 216 215 215 214 219 217 214
151 134 102 59 33 58 75 68 58 62 52 49 40 27 26 19 22 43 39 45 41 46 52 298 286 275 269 267 250 231 229 231 227 225 223 217 213 212 210 210 212 212 211
150 138 123 106 70 100 103 90 75 68 55 51 39 23 26 33 37 42 52 62 60 45 29 6 320 303 304 299 301 265 234 233 233 230 222 217 216 212 211 210 212 211 210
151 151 148 138 114 104 95 108 94 110 92 70 66 48 31 31 28 38 47 46 47 30 340 335 330 324 325 328 326 322 308 260 246 236 227 222 219 215 212 213 214 213 212
143 149 141 119 116 107 89 96 106 87 94 91 81 60 39 30 29 28 18 12 10 1 336 323 334 324 308 310 313 311 333 332 289 263 243 232 229 223 219 218 218 216 214
135 135 116 100 110 126 143 142 132 106 81 94 88 52 27 29 22 1 9 18 8 346 331 297 287 297 310 298 301 303 303 305 307 292 265 249 242 237 229 219 215 215 216
138 146 148 146 145 136 120 121 127 118 92 88 110 99 18 359 5 11 20 12 337 338 322 295 277 270 272 282 290 295 303 313 318 317 285 258 244 231 224 213 207 202 208
148 148 153 155 147 144 149 153 148 139 138 72 85 129 136 238 321 355 10 7 351 340 324 312 297 279 262 261 279 285 284 295 296 297 299 277 286 218 198 196 189 185 192
106 154 152 150 145 145 156 170 148 145 144 146 100 85 136 151 149 333 345 2 349 325 318 312 306 295 270 259 263 268 263 265 277 277 273 267 259 244 213 202 202 197 193
13 11 142 143 148 150 155 148 134 140 152 157 161 148 111 89 118 168 288 324 338 325 318 305 303 302 286 268 261 252 239 235 247 267 275 266 255 238 213 204 206 210 204
297 298 157 159 164 160 164 174 165 159 158 151 160 155 155 153 179 173 217 280 305 314 320 312 302 297 293 283 272 255 241 239 243 251 261 267 279 268 229 214 214 216 208
227 240 189 183 194 196 187 167 156 171 176 172 190 190 181 189 174 169 180 228 285 311 320 312 297 297 290 284 279 268 249 234 239 243 241 254 287 304 232 205 208 210 205
218 211 195 197 208 195 184 161 159 193 175 185 202 196 185 197 186 182 182 182 249 320 317 291 306 285 280 270 271 260 256 235 231 234 233 235 244 251 251 234 219 201 212
209 195 190 188 200 192 170 151 170 208 176 191 204 200 207 217 195 200 192 188 186 260 290 271 270 283 273 267 268 248 249 253 239 237 233 232 231 229 234 238 236 220 215
196 182 187 191 201 202 175 158 168 190 162 205 189 173 245 252 217 195 194 202 202 207 253 266 254 275 281 291 275 257 250 255 253 247 239 238 241 241 238 237 237 234 230
186 191 196 194 197 207 197 175 192 182 184 231 228 168 262 262 238 218 190 196 203 201 243 276 261 274 263 283 305 286 268 261 262 252 248 247 246 243 241 239 236 234 231
191 190 191 193 205 208 194 188 203 198 201 218 234 229 268 264 271 254 217 219 223 216 224 262 279 266 259 273 287 284 281 269 262 260 254 252 252 248 247 244 239 235 232
195 193 190 198 209 211 205 204 202 209 216 224 228 232 250 241 258 257 244 247 245 233 222 239 271 267 260 275 293 289 285 277 276 270 259 256 256 254 252 247 242 236 233
196 202 203 206 209 211 211 211 208 218 228 238 239 237 241 233 238 242 242 241 237 234 225 240 264 273 267 272 266 272 284 274 273 280 272 267 260 256 255 250 245 241 235
203 201 203 212 214 212 218 211 213 222 230 248 256 250 248 242 236 230 235 230 223 230 236 246 258 267 261 254 257 255 265 282 269 255 271 273 267 265 262 256 250 246 239
205 199 211 219 227 235 226 212 211 223 231 241 254 261 259 251 249 240 234 227 217 222 231 236 249 252 254 245 246 248 256 275 280 249 250 272 255 261 259 253 250 243 238
203 209 221 223 233 242 231 220 215 218 231 239 245 254 263 261 241 245 245 242 239 233 222 223 238 246 252 239 232 244 241 248 256 257 242 270 259 263 261 254 247 244 240
201 216 228 231 239 251 240 230 222 222 234 243 245 244 247 256 250 237 243 253 257 255 242 233 240 248 251 244 229 237 248 257 265 249 215 256 263 264 267 259 248 238 237
204 213 225 229 238 261 251 237 222 226 237 249 250 246 241 249 250 233 236 257 271 273 261 248 247 252 253 247 228 231 244 258 273 264 213 238 263 268 266 259 255 240 236
207 212 229 235 236 251 254 241 224 231 241 254 261 259 249 247 251 230 234 246 265 275 279 277 268 268 264 258 230 225 232 241 261 266 224 219 253 257 273 256 252 249 241
Height
1540 1541 1542 1543 1544 1545 1546 1546 1547 1546 1547 1547 1547 1547 1547 1546 1546 1545 1545 1545 1545 1546 1546 1547 1547 1548 1548 1548 1549 1549 1550 1550 1551 1552 1553 1554 1555 1556 1557 1559 1560 1562 1563
1542 1542 1543 1544 1545 1546 1546 1547 1547 1547 1547 1547 1547 1547 1547 1546 1546 1545 1545 1545 1545 1546 1546 1546 1547 1547 1547 1547 1547 1547 1548 1549 1549 1550 1551 1552 1553 1554 1555 1557 1558 1560 1561
1543 1544 1544 1545 1546 1547 1547 1547 1548 1548 1548 1548 1547 1547 1547 1546 1546 1545 1545 1545 1545 1546 1546 1546 1546 1546 1546 1546 1545 1545 1546 1547 1548 1548 1549 1549 1550 1551 1553 1554 1556 1557 1558
1544 1545 1546 1546 1547 1548 1548 1548 1548 1548 1548 1548 1548 1548 1547 1547 1546 1546 1546 1545 1546 1546 1546 1546 1546 1546 1545 1545 1544 1544 1544 1545 1546 1546 1546 1547 1548 1549 1550 1551 1553 1554 1555
1546 1546 1547 1547 1548 1548 1549 1549 1549 1549 1549 1548 1548 1548 1548 1548 1547 1547 1547 1546 1546 1546 1546 1546 1546 1545 1545 1544 1544 1543 1543 1544 1544 1544 1545 1545 1546 1547 1548 1549 1550 1551 1553
1547 1547 1548 1548 1549 1549 1549 1549 1549 1549 1549 1549 1549 1548 1548 1548 1548 1548 1547 1547 1546 1546 1546 1545 1545 1545 1544 1544 1544 1543 1543 1542 1542 1542 1542 1543 1544 1545 1546 1546 1547 1548 1550
1548 1548 1549 1549 1549 1549 1549 1550 1550 1549 1549 1549 1549 1549 1549 1548 1548 1548 1547 1547 1547 1546 1546 1545 1545 1544 1544 1543 1543 1543 1543 1542 1542 1542 1541 1542 1542 1542 1543 1543 1544 1545 1547
1548 1549 1549 1549 1549 1549 1549 1550 1550 1549 1549 1549 1549 1549 1549 1550 1548 1548 1548 1547 1547 1546 1546 1545 1544 1544 1543 1543 1542 1542 1542 1541 1541 1540 1540 1540 1540 1540 1541 1541 1542 1543 1544
1548 1549 1549 1549 1549 1550 1549 1549 1549 1549 1549 1549 1549 1550 1549 1549 1548 1548 1547 1547 1547 1546 1545 1545 1544 1543 1543 1542 1542 1541 1541 1540 1539 1539 1538 1538 1538 1538 1538 1539 1539 1540 1541
1548 1549 1549 1549 1549 1549 1549 1549 1549 1549 1549 1549 1549 1549 1549 1549 1549 1548 1548 1547 1546 1546 1545 1544 1543 1542 1542 1542 1541 1540 1540 1539 1538 1538 1537 1536 1536 1536 1536 1536 1537 1538 1538
1548 1549 1549 1549 1549 1549 1549 1549 1548 1548 1548 1548 1548 1548 1548 1548 1548 1548 1547 1547 1546 1545 1545 1544 1543 1542 1541 1541 1540 1539 1538 1537 1537 1536 1536 1535 1534 1534 1534 1534 1535 1535 1536
1547 1548 1548 1548 1548 1548 1548 1548 1548 1548 1548 1548 1548 1548 1548 1548 1547 1547 1546 1545 1545 1544 1544 1543 1543 1542 1541 1540 1539 1538 1537 1536 1535 1534 1534 1533 1533 1532 1532 1532 1533 1533 1534
1546 1547 1547 1548 1548 1548 1548 1548 1548 1547 1547 1547 1547 1547 1547 1547 1546 1546 1545 1544 1544 1543 1543 1542 1541 1541 1540 1539 1538 1537 1536 1535 1534 1533 1533 1532 1531 1531 1530 1531 1531 1531 1532
1545 1546 1546 1547 1547 1547 1547 1547 1547 1547 1546 1546 1546 1546 1546 1545 1545 1545 1544 1544 1542 1542 1541 1541 1540 1540 1539 1538 1537 1536 1535 1534 1533 1532 1531 1531 1530 1530 1529 1529 1530 1530 1530
1544 1544 1545 1545 1545 1546 1546 1546 1546 1546 1545 1545 1545 1545 1545 1544 1544 1543 1543 1543 1542 1540 1539 1539 1539 1538 1537 1536 1535 1534 1534 1533 1532 1531 1530 1529 1529 1528 1528 1528 1528 1528 1529
1542 1543 1544 1544 1544 1544 1545 1545 1545 1544 1544 1544 1544 1543 1543 1543 1542 1542 1542 1541 1541 1540 1538 1537 1537 1537 1536 1535 1534 1533 1532 1531 1530 1529 1529 1528 1527 1527 1526 1526 1526 1526 1526
1540 1541 1542 1542 1543 1543 1543 1543 1543 1543 1542 1542 1542 1542 1541 1541 1541 1540 1540 1539 1539 1538 1537 1536 1535 1535 1534 1533 1532 1531 1530 1529 1528 1527 1527 1526 1525 1525 1524 1524 1524 1523 1523
1538 1539 1540 1541 1541 1541 1541 1541 1541 1541 1541 1540 1540 1540 1539 1539 1539 1538 1538 1537 1537 1536 1535 1533 1533 1532 1532 1531 1530 1529 1528 1527 1526 1525 1524 1523 1523 1522 1522 1521 1521 1520 1520
1536 1537 1538 1538 1539 1540 1540 1540 1539 1539 1539 1539 1538 1538 1538 1537 1536 1536 1536 1535 1535 1534 1533 1532 1530 1530 1529 1528 1527 1526 1525 1524 1523 1522 1522 1520 1520 1519 1518 1518 1517 1517 1517
1533 1535 1536 1536 1537 1537 1538 1538 1538 1537 1537 1537 1536 1536 1535 1535 1534 1533 1533 1532 1532 1531 1530 1529 1528 1527 1526 1525 1524 1523 1522 1521 1520 1519 1518 1517 1516 1515 1515 1514 1514 1513 1513
1531 1532 1533 1534 1534 1535 1535 1535 1535 1535 1535 1534 1534 1533 1533 1532 1531 1531 1530 1529 1528 1527 1527 1526 1524 1523 1522 1522 1521 1520 1518 1517 1516 1515 1514 1514 1513 1512 1511 1510 1510 1509 1509
1528 1529 1530 1530 1531 1531 1532 1532 1532 1532 1532 1531 1530 1530 1529 1529 1528 1528 1527 1526 1525 1524 1523 1522 1520 1519 1518 1518 1517 1516 1515 1513 1512 1512 1510 1509 1509 1507 1507 1506 1505 1505 1504
1525 1525 1526 1527 1527 1528 1528 1529 1529 1528 1528 1527 1527 1526 1526 1525 1524 1524 1523 1522 1521 1521 1520 1519 1517 1515 1515 1514 1513 1512 1511 1510 1508 1508 1506 1504 1504 1503 1502 1501 1501 1500 1500
1521 1522 1523 1523 1524 1524 1525 1525 1525 1525 1524 1523 1523 1522 1522 1521 1520 1520 1519 1518 1517 1516 1515 1514 1513 1512 1511 1510 1509 1509 1507 1506 1505 1504 1502 1500 1499 1498 1497 1496 1496 1495 1495
1517 1518 1519 1519 1520 1520 1521 1521 1521 1520 1519 1519 1519 1518 1517 1517 1516 1516 1515 1513 1512 1512 1511 1510 1509 1507 1506 1505 1505 1504 1502 1501 1499 1498 1497 1496 1494 1493 1492 1491 1491 1490 1489
1514 1514 1515 1516 1516 1516 1516 1517 1517 1516 1515 1514 1514 1514 1513 1512 1512 1511 1510 1509 1507 1507 1506 1504 1504 1503 1501 1500 1499 1498 1497 1496 1494 1492 1492 1491 1489 1489 1486 1485 1485 1485 1484